NOVA 3

导读

NOVA 3(诺瓦3号)是美国无线电公司研发的导航卫星,于1984年10月12日08:00在范登堡空军基地由侦察兵-G1火箭发射升空,卫星质量170kg,国际卫星标识符为1984-110A,NORAD编号15362,属于诺瓦卫星系列。它运行在近地点1153km、远地点1202km,倾角90.05°的轨道上,主要承担导航服务任务,是美国早期导航卫星体系的重要组成。

基本信息
目录编号:
15362
目录名称:
NOVA 3
国际标识:
1984-110A
轨道中心:
EARTH
卫星名称:
NOVA 3
卫星全名:
--
卫星状态:
在轨 (已飞行15309 天)
发射日期:
1984-10-12 UTC
国别 :
美国 (US)
星等 :
--
该卫星已列入 空间交会检测服务 Space Conjunction Data Service (SCDS) ,当前飞行风险评估等级: 无高风险
轨道信息
数据来源 国际轨道数据 AOE轨道数据
星历时间 2026-09-11T08:49:44+0800
15小时前
查看轨道信息
2026-09-09T22:00:00+0800
2天前
查看轨道信息
半长轴 7551.13km 7551.127km
偏心率 0.0029948 0.0029974
轨道倾角 90.111° 90.111°
近地点辐角 300.794° 304.813°
升交点赤经 83.600° 83.584°
平近点角 226.918° 154.706°
近地点 1150.378km 1150.356km
远地点 1195.608km 1195.624km
周期 108.837分钟 108.837分钟
每日圈数 13.230762 13.23077
详细信息
使用方式:
暂无
2D轨道图
3D轨道图
轨道高度分析图
轨道倾角分析图
轨道综合分析图
查看轨道综合分析图
与全量物体交会距离演化趋势
与全量物体交会风险概率演化趋势